Total_Precipitation_Accumulation
2.26 2.33 2.26 2.24 2.18 2.09 1.95 1.78 1.74 1.68 1.55 1.45 1.39 1.35 1.32 1.35 1.34 1.38 1.36 1.32 1.29 1.25 1.21 1.20 1.23 1.29 1.38 1.37 1.41 1.53 1.75 1.95 2.00 1.65 1.52 1.61 1.75 1.70 1.73 1.66 1.55 1.56 1.55
1.91 2.05 2.11 2.03 1.85 1.75 1.68 1.60 1.50 1.43 1.38 1.32 1.21 1.16 1.13 1.10 1.08 1.10 1.13 1.14 1.14 1.09 1.11 1.16 1.17 1.21 1.27 1.33 1.39 1.44 1.59 1.85 2.01 1.91 1.69 1.71 1.77 1.74 1.81 1.77 1.58 1.47 1.50
1.68 1.71 1.72 1.67 1.61 1.52 1.49 1.49 1.37 1.29 1.23 1.16 1.11 1.10 1.04 1.03 0.97 0.95 0.97 1.04 1.05 1.01 1.05 1.11 1.16 1.31 1.30 1.33 1.39 1.43 1.54 1.68 1.97 2.03 1.82 1.82 1.88 1.89 2.02 1.87 1.70 1.67 1.42
1.41 1.47 1.48 1.45 1.44 1.40 1.30 1.28 1.25 1.22 1.17 1.12 1.10 1.03 0.98 0.94 0.94 0.93 0.93 0.97 0.98 0.98 1.04 1.11 1.16 1.28 1.36 1.42 1.43 1.50 1.57 1.70 1.87 2.01 1.96 1.96 2.02 2.05 2.07 2.00 1.89 1.74 1.58
1.33 1.30 1.37 1.43 1.40 1.35 1.33 1.29 1.23 1.17 1.09 1.08 1.07 1.02 0.97 0.90 0.87 0.88 0.89 0.91 0.99 1.01 1.00 1.01 1.06 1.17 1.27 1.27 1.19 1.28 1.47 1.70 1.76 1.93 1.98 2.02 2.02 2.08 2.00 1.79 1.74 1.70 1.56
1.35 1.31 1.32 1.36 1.33 1.29 1.27 1.23 1.18 1.14 1.12 1.08 1.04 1.00 0.94 0.78 0.82 0.85 0.86 0.92 0.98 0.99 0.98 0.97 0.93 0.93 0.91 0.93 0.98 1.05 1.21 1.50 1.83 2.04 1.99 1.97 1.86 1.80 1.83 1.78 1.79 1.80 1.75
1.49 1.37 1.34 1.29 1.21 1.18 1.09 1.06 1.12 1.13 1.10 1.03 0.97 0.97 0.95 0.85 0.80 0.75 0.79 0.89 0.97 1.04 1.08 1.06 0.84 0.73 0.84 0.89 0.94 0.99 1.12 1.31 1.63 2.00 2.08 1.87 1.82 1.78 1.84 1.84 1.90 1.94 1.80
1.47 1.34 1.26 1.23 1.17 1.13 1.11 1.11 1.12 1.11 1.06 1.07 1.04 1.02 1.01 0.89 0.80 0.72 0.76 0.83 0.94 0.97 0.99 1.03 1.05 0.95 0.90 0.99 1.04 1.12 1.23 1.35 1.46 1.58 1.90 1.73 1.55 1.59 1.71 1.77 1.88 1.91 1.79
1.46 1.26 1.16 1.13 1.07 1.04 1.06 1.08 1.07 1.05 1.01 0.99 0.99 1.00 1.06 1.00 0.86 0.76 0.72 0.77 0.88 0.89 0.86 0.86 0.86 0.89 0.99 1.16 1.27 1.46 1.56 1.66 1.56 1.71 1.88 1.83 1.69 1.66 1.58 1.70 1.98 2.02 1.89
1.23 1.10 1.06 1.08 1.01 0.98 1.00 0.99 0.96 0.97 0.97 0.95 0.93 0.96 0.99 0.92 0.78 0.66 0.63 0.69 0.83 0.87 0.90 0.88 0.81 0.76 0.90 1.08 1.32 1.63 1.76 1.83 1.69 1.80 2.08 2.10 1.93 1.94 1.95 1.88 2.07 2.15 2.03
1.04 0.97 1.00 0.99 0.92 0.88 0.91 0.93 0.94 0.89 0.91 0.92 0.88 0.89 0.83 0.71 0.64 0.55 0.54 0.59 0.72 0.84 0.90 0.95 0.92 0.84 0.89 1.11 1.32 1.52 1.68 1.73 1.78 1.88 1.92 1.94 2.01 2.05 2.06 2.04 2.05 2.04 1.99
0.95 0.90 0.95 0.98 0.76 0.67 0.78 0.80 0.82 0.90 0.90 0.91 0.90 0.83 0.69 0.64 0.55 0.51 0.52 0.52 0.57 0.73 0.92 0.94 0.95 0.92 0.96 1.15 1.31 1.57 1.79 1.87 1.85 1.92 1.79 1.68 1.65 1.68 1.77 1.79 1.79 1.76 1.70
0.91 0.93 0.92 0.89 0.81 0.72 0.76 0.76 0.80 0.86 0.84 0.82 0.84 0.79 0.67 0.64 0.58 0.51 0.51 0.55 0.59 0.67 0.83 0.91 0.92 0.93 1.05 1.33 1.51 1.70 1.88 2.00 2.04 1.92 1.71 1.58 1.45 1.41 1.43 1.52 1.61 1.63 1.54
0.94 0.95 0.93 0.89 0.81 0.76 0.77 0.72 0.73 0.74 0.73 0.70 0.72 0.74 0.70 0.67 0.59 0.54 0.58 0.63 0.67 0.70 0.80 0.95 1.03 1.06 1.20 1.49 1.72 1.92 2.00 1.93 1.80 1.74 1.64 1.54 1.40 1.35 1.38 1.35 1.40 1.47 1.50
0.96 0.92 0.89 0.80 0.76 0.76 0.71 0.59 0.55 0.53 0.54 0.59 0.64 0.63 0.62 0.59 0.55 0.57 0.58 0.59 0.63 0.66 0.74 0.94 1.12 1.22 1.38 1.56 1.74 1.82 1.83 1.73 1.63 1.46 1.40 1.46 1.44 1.36 1.35 1.29 1.28 1.32 1.41
0.91 0.87 0.79 0.72 0.69 0.65 0.67 0.58 0.49 0.45 0.43 0.42 0.45 0.45 0.46 0.52 0.54 0.55 0.54 0.57 0.61 0.66 0.73 0.95 1.11 1.19 1.35 1.54 1.68 1.66 1.58 1.51 1.42 1.32 1.27 1.23 1.22 1.19 1.20 1.20 1.14 1.14 1.22
0.79 0.76 0.71 0.67 0.64 0.61 0.63 0.66 0.63 0.48 0.38 0.37 0.39 0.41 0.44 0.46 0.43 0.43 0.47 0.53 0.55 0.60 0.69 0.91 1.06 1.19 1.39 1.50 1.50 1.48 1.45 1.37 1.29 1.25 1.22 1.14 1.07 1.04 1.02 1.00 1.00 1.03 1.01
0.63 0.59 0.58 0.61 0.62 0.60 0.55 0.54 0.55 0.56 0.53 0.46 0.40 0.39 0.37 0.37 0.35 0.35 0.41 0.45 0.50 0.54 0.68 0.89 1.04 1.15 1.26 1.33 1.38 1.41 1.38 1.29 1.20 1.19 1.24 1.20 1.09 1.02 0.95 0.95 0.94 0.92 0.91
0.53 0.54 0.48 0.48 0.51 0.51 0.48 0.48 0.47 0.50 0.51 0.50 0.45 0.39 0.37 0.36 0.36 0.39 0.43 0.46 0.54 0.63 0.72 0.86 0.97 1.07 1.11 1.12 1.17 1.21 1.22 1.21 1.16 1.12 1.12 1.12 1.06 0.98 0.88 0.82 0.79 0.71 0.75
0.43 0.42 0.40 0.39 0.41 0.44 0.42 0.44 0.44 0.43 0.44 0.45 0.44 0.39 0.39 0.45 0.47 0.50 0.49 0.47 0.53 0.62 0.71 0.81 0.89 0.95 0.93 0.92 0.92 0.94 0.98 1.02 1.01 0.96 0.94 0.95 0.94 0.86 0.80 0.76 0.74 0.71 0.70
0.34 0.35 0.36 0.33 0.33 0.33 0.31 0.31 0.35 0.37 0.39 0.42 0.40 0.38 0.46 0.51 0.55 0.57 0.57 0.56 0.58 0.62 0.66 0.69 0.73 0.76 0.75 0.76 0.77 0.79 0.83 0.87 0.88 0.87 0.84 0.83 0.81 0.79 0.73 0.70 0.67 0.64 0.61
0.30 0.30 0.33 0.32 0.30 0.27 0.26 0.26 0.29 0.31 0.33 0.37 0.41 0.43 0.53 0.52 0.56 0.61 0.63 0.63 0.63 0.62 0.59 0.60 0.59 0.60 0.61 0.64 0.64 0.65 0.68 0.70 0.76 0.82 0.83 0.78 0.70 0.67 0.63 0.61 0.63 0.63 0.61
0.32 0.31 0.32 0.34 0.31 0.29 0.27 0.29 0.29 0.30 0.31 0.33 0.35 0.41 0.49 0.56 0.63 0.69 0.69 0.66 0.65 0.62 0.57 0.56 0.57 0.58 0.58 0.56 0.56 0.60 0.63 0.65 0.71 0.78 0.83 0.77 0.68 0.64 0.59 0.56 0.58 0.62 0.60
0.36 0.34 0.34 0.35 0.34 0.32 0.32 0.32 0.31 0.31 0.33 0.35 0.38 0.40 0.45 0.53 0.60 0.67 0.73 0.71 0.67 0.64 0.60 0.57 0.57 0.57 0.56 0.54 0.49 0.46 0.47 0.53 0.62 0.69 0.72 0.72 0.63 0.56 0.51 0.51 0.51 0.52 0.55
0.40 0.38 0.35 0.32 0.32 0.32 0.30 0.30 0.31 0.31 0.31 0.33 0.34 0.36 0.39 0.43 0.48 0.58 0.68 0.72 0.73 0.73 0.67 0.63 0.62 0.59 0.53 0.47 0.41 0.36 0.41 0.49 0.55 0.58 0.62 0.61 0.53 0.49 0.48 0.49 0.48 0.46 0.48
0.36 0.38 0.36 0.31 0.28 0.29 0.30 0.30 0.31 0.33 0.34 0.33 0.31 0.31 0.33 0.36 0.41 0.47 0.56 0.62 0.67 0.73 0.77 0.78 0.74 0.61 0.50 0.43 0.41 0.41 0.42 0.41 0.44 0.49 0.52 0.51 0.45 0.44 0.47 0.47 0.42 0.43 0.45